This demonstration page uses our WeatherBlox Daily Observations layout. Learn more.

Left ArrowRight Arrow

Hourly Observations for June 21, 2019

Temp ( °F °C ) Dew Point ( °F °C ) Humidity (%) Winds ( mph kmh ) Pressure ( in mb ) Visibility ( mi km ) Precip ( " mm )
12:56 am 00:56 Partly Cloudy 75 24 66 19 74 74 SE 12 19 29.67 1005 10 16 0.00 0.00
1:56 am 01:56 Partly Cloudy 73 23 66 19 78 78 ESE 9 15 29.66 1004 10 16 0.00 0.00
2:56 am 02:56 Mostly Cloudy 75 24 64 18 69 69 SE 14 22 29.66 1004 10 16 0.00 0.00
3:56 am 03:56 Mostly Cloudy 75 24 66 19 74 74 SE 12 19 29.67 1005 10 16 0.00 0.00
4:18 am 04:18 Mostly Cloudy with Light Rain 73 23 66 19 78 78 SSE 12 19 29.68 1005 7 11 0.00 0.00
4:34 am 04:34 Mostly Cloudy with Rain 73 23 66 19 78 78 WSW 18 30 29.67 1005 5 8 0.02 0.51
4:56 am 04:56 Cloudy with Thunderstorms 70 21 63 17 78 78 WSW 12 19 29.70 1006 6 10 0.00 0.00
5:56 am 05:56 Mostly Cloudy with Thunderstorms 66 19 64 18 94 94 SE 7 11 29.68 1005 5 8 0.16 4.06
6:56 am 06:56 Mostly Cloudy with Thunderstorms 68 20 61 16 78 78 E 14 22 29.53 1000 6 10 0.09 2.29
7:56 am 07:56 Cloudy with Thunderstorms 66 19 63 17 88 88 SSW 15 24 29.71 1006 6 10 0.06 1.52
8:56 am 08:56 Cloudy with Light Showers 66 19 63 17 88 88 Calm 29.72 1007 7 11 0.09 2.29
9:56 am 09:56 Cloudy with Light Showers 68 20 63 17 83 83 E 15 24 29.51 999 7 11 0.04 1.02
10:56 am 10:56 Mostly Cloudy 70 21 61 16 73 73 ESE 12 19 29.57 1001 7 11 0.00 0.03
11:56 am 11:56 Mostly Cloudy 70 21 63 17 78 78 E 6 9 29.63 1003 7 11 0.00 0.00
12:56 pm 12:56 Cloudy 75 24 63 17 65 65 E 6 9 29.66 1004 7 11 0.00 0.00
1:56 pm 13:56 Cloudy 79 26 63 17 58 58 NE 3 6 29.66 1005 7 11 0.00 0.00
2:56 pm 14:56 Partly Cloudy 81 27 63 17 54 54 ENE 6 9 29.65 1004 7 11 0.00 0.00
3:56 pm 15:56 undefined N/A N/A N/A ESE 8 13 N/A N/A 0.00 0.00
4:56 pm 16:56 Mostly Sunny 81 27 64 18 58 58 E 5 7 29.67 1005 7 11 0.00 0.00
5:56 pm 17:56 Mostly Sunny 81 27 63 17 54 54 SSE 7 11 29.67 1005 7 11 0.00 0.00
6:58 pm 18:58 Mostly Sunny 81 27 66 19 62 62 VRB 7 11 29.67 1005 7 11 0.00 0.00
7:57 pm 19:57 Mostly Sunny 79 26 66 19 65 65 ENE 7 11 29.69 1005 7 11 0.00 0.00
8:56 pm 20:56 Mostly Sunny 79 26 66 19 65 65 NE 5 7 29.70 1006 7 11 0.00 0.00
9:56 pm 21:56 undefined N/A N/A N/A ENE 13 20 N/A N/A 0.00 0.00
10:56 pm 22:56 Mostly Clear 73 23 66 19 78 78 E 8 13 29.77 1008 10 16 0.00 0.00
11:56 pm 23:56 Mostly Clear 72 22 64 18 78 78 ENE 9 15 29.76 1008 10 16 0.00 0.00

Powered by AerisWeather